Year,Month,Day,Hour,Minute,Value (Times are PST for temperature in C)
2019,07,16,00,00,16.10
2019,07,16,00,01,16.10
2019,07,16,00,02,16.10
2019,07,16,00,03,16.10
2019,07,16,00,04,16.10
2019,07,16,00,05,16.10
2019,07,16,00,06,16.00
2019,07,16,00,07,15.90
2019,07,16,00,08,15.90
2019,07,16,00,09,15.90
2019,07,16,00,10,15.90
2019,07,16,00,11,15.80
2019,07,16,00,12,15.80
2019,07,16,00,13,15.80
2019,07,16,00,14,15.80
2019,07,16,00,15,15.80
2019,07,16,00,16,15.80
2019,07,16,00,17,15.80
2019,07,16,00,18,15.80
2019,07,16,00,19,15.80
2019,07,16,00,20,15.80
2019,07,16,00,21,15.80
2019,07,16,00,22,15.70
2019,07,16,00,23,15.70
2019,07,16,00,24,15.70
2019,07,16,00,25,15.70
2019,07,16,00,26,15.70
2019,07,16,00,27,15.60
2019,07,16,00,28,15.60
2019,07,16,00,29,15.60
2019,07,16,00,30,15.60
2019,07,16,00,31,15.60
2019,07,16,00,32,15.60
2019,07,16,00,33,15.60
2019,07,16,00,34,15.60
2019,07,16,00,35,15.50
2019,07,16,00,36,15.50
2019,07,16,00,37,15.50
2019,07,16,00,38,15.50
2019,07,16,00,39,15.50
2019,07,16,00,40,15.50
2019,07,16,00,41,15.50
2019,07,16,00,42,15.50
2019,07,16,00,43,15.40
2019,07,16,00,44,15.40
2019,07,16,00,45,15.40
2019,07,16,00,46,15.40
2019,07,16,00,47,15.40
2019,07,16,00,48,15.40
2019,07,16,00,49,15.40
2019,07,16,00,50,15.30
2019,07,16,00,51,15.30
2019,07,16,00,52,15.30
2019,07,16,00,53,15.30
2019,07,16,00,54,15.30
2019,07,16,00,55,15.30
2019,07,16,00,56,15.30
2019,07,16,00,57,15.30
2019,07,16,00,58,15.30
2019,07,16,00,59,15.30
2019,07,16,01,00,15.30
2019,07,16,01,01,15.20
2019,07,16,01,02,15.20
2019,07,16,01,03,15.20
2019,07,16,01,04,15.20
2019,07,16,01,05,15.20
2019,07,16,01,06,15.20
2019,07,16,01,07,15.10
2019,07,16,01,08,15.10
2019,07,16,01,09,15.10
2019,07,16,01,10,15.10
2019,07,16,01,11,15.10
2019,07,16,01,12,15.10
2019,07,16,01,13,15.10
2019,07,16,01,14,15.00
2019,07,16,01,15,15.00
2019,07,16,01,16,15.00
2019,07,16,01,17,15.00
2019,07,16,01,18,15.00
2019,07,16,01,19,15.00
2019,07,16,01,20,14.90
2019,07,16,01,21,14.90
2019,07,16,01,22,14.90
2019,07,16,01,23,14.90
2019,07,16,01,24,14.90
2019,07,16,01,25,14.90
2019,07,16,01,26,14.80
2019,07,16,01,27,14.80
2019,07,16,01,28,14.80
2019,07,16,01,29,14.80
2019,07,16,01,30,14.80
2019,07,16,01,31,14.80
2019,07,16,01,32,14.80
2019,07,16,01,33,14.80
2019,07,16,01,34,14.70
2019,07,16,01,35,14.70
2019,07,16,01,36,14.70
2019,07,16,01,37,14.70
2019,07,16,01,38,14.70
2019,07,16,01,39,14.70
2019,07,16,01,40,14.60
2019,07,16,01,41,14.60
2019,07,16,01,42,14.60
2019,07,16,01,43,14.60
2019,07,16,01,44,14.60
2019,07,16,01,45,14.60
2019,07,16,01,46,14.60
2019,07,16,01,47,14.60
2019,07,16,01,48,14.50
2019,07,16,01,49,14.50
2019,07,16,01,50,14.50
2019,07,16,01,51,14.50
2019,07,16,01,52,14.50
2019,07,16,01,53,14.50
2019,07,16,01,54,14.40
2019,07,16,01,55,14.40
2019,07,16,01,56,14.40
2019,07,16,01,57,14.40
2019,07,16,01,58,14.40
2019,07,16,01,59,14.40
2019,07,16,02,00,14.30
2019,07,16,02,01,14.30
2019,07,16,02,02,14.30
2019,07,16,02,03,14.30
2019,07,16,02,04,14.30
2019,07,16,02,05,14.30
2019,07,16,02,06,14.20
2019,07,16,02,07,14.20
2019,07,16,02,08,14.20
2019,07,16,02,09,14.20
2019,07,16,02,10,14.20
2019,07,16,02,11,14.20
2019,07,16,02,12,14.20
2019,07,16,02,13,14.20
2019,07,16,02,14,14.20
2019,07,16,02,15,14.20
2019,07,16,02,16,14.20
2019,07,16,02,17,14.20
2019,07,16,02,18,14.10
2019,07,16,02,19,14.10
2019,07,16,02,20,14.10
2019,07,16,02,21,14.10
2019,07,16,02,22,14.10
2019,07,16,02,23,14.10
2019,07,16,02,24,14.00
2019,07,16,02,25,14.00
2019,07,16,02,26,14.00
2019,07,16,02,27,14.00
2019,07,16,02,28,13.90
2019,07,16,02,29,13.90
2019,07,16,02,30,13.90
2019,07,16,02,31,13.90
2019,07,16,02,32,13.90
2019,07,16,02,33,13.80
2019,07,16,02,34,13.80
2019,07,16,02,35,13.80
2019,07,16,02,36,13.80
2019,07,16,02,37,13.70
2019,07,16,02,38,13.70
2019,07,16,02,39,13.70
2019,07,16,02,40,13.70
2019,07,16,02,41,13.70
2019,07,16,02,42,13.70
2019,07,16,02,43,13.70
2019,07,16,02,44,13.70
2019,07,16,02,45,13.70
2019,07,16,02,46,13.70
2019,07,16,02,47,13.70
2019,07,16,02,48,13.70
2019,07,16,02,49,13.60
2019,07,16,02,50,13.60
2019,07,16,02,51,13.60
2019,07,16,02,52,13.60
2019,07,16,02,53,13.50
2019,07,16,02,54,13.50
2019,07,16,02,55,13.50
2019,07,16,02,56,13.50
2019,07,16,02,57,13.50
2019,07,16,02,58,13.50
2019,07,16,02,59,13.50
2019,07,16,03,00,13.50
2019,07,16,03,01,13.50
2019,07,16,03,02,13.50
2019,07,16,03,03,13.50
2019,07,16,03,04,13.60
2019,07,16,03,05,13.60
2019,07,16,03,06,13.60
2019,07,16,03,07,13.60
2019,07,16,03,08,13.50
2019,07,16,03,09,13.60
2019,07,16,03,10,13.60
2019,07,16,03,11,13.60
2019,07,16,03,12,13.60
2019,07,16,03,13,13.60
2019,07,16,03,14,13.60
2019,07,16,03,15,13.60
2019,07,16,03,16,13.60
2019,07,16,03,17,13.60
2019,07,16,03,18,13.60
2019,07,16,03,19,13.60
2019,07,16,03,20,13.60
2019,07,16,03,21,13.50
2019,07,16,03,22,13.50
2019,07,16,03,23,13.50
2019,07,16,03,24,13.50
2019,07,16,03,25,13.40
2019,07,16,03,26,13.40
2019,07,16,03,27,13.40
2019,07,16,03,28,13.40
2019,07,16,03,29,13.50
2019,07,16,03,30,13.40
2019,07,16,03,31,13.40
2019,07,16,03,32,13.40
2019,07,16,03,33,13.40
2019,07,16,03,34,13.40
2019,07,16,03,35,13.40
2019,07,16,03,36,13.30
2019,07,16,03,37,13.30
2019,07,16,03,38,13.30
2019,07,16,03,39,13.30
2019,07,16,03,40,13.30
2019,07,16,03,41,13.30
2019,07,16,03,42,13.30
2019,07,16,03,43,13.30
2019,07,16,03,44,13.30
2019,07,16,03,45,13.30
2019,07,16,03,46,13.30
2019,07,16,03,47,13.20
2019,07,16,03,48,13.20
2019,07,16,03,49,13.20
2019,07,16,03,50,13.20
2019,07,16,03,51,13.20
2019,07,16,03,52,13.20
2019,07,16,03,53,13.20
2019,07,16,03,54,13.20
2019,07,16,03,55,13.20
2019,07,16,03,56,13.10
2019,07,16,03,57,13.10
2019,07,16,03,58,13.10
2019,07,16,03,59,13.10
2019,07,16,04,00,13.10
2019,07,16,04,01,13.00
2019,07,16,04,02,13.00
2019,07,16,04,03,13.00
2019,07,16,04,04,13.00
2019,07,16,04,05,13.00
2019,07,16,04,06,13.00
2019,07,16,04,07,13.00
2019,07,16,04,08,13.00
2019,07,16,04,09,12.90
2019,07,16,04,10,12.90
2019,07,16,04,11,12.90
2019,07,16,04,12,12.90
2019,07,16,04,13,12.90
2019,07,16,04,14,12.90
2019,07,16,04,15,12.90
2019,07,16,04,16,12.90
2019,07,16,04,17,12.90
2019,07,16,04,18,12.90
2019,07,16,04,19,12.90
2019,07,16,04,20,12.80
2019,07,16,04,21,12.80
2019,07,16,04,22,12.80
2019,07,16,04,23,12.80
2019,07,16,04,24,12.80
2019,07,16,04,25,12.80
2019,07,16,04,26,12.80
2019,07,16,04,27,12.80
2019,07,16,04,28,12.80
2019,07,16,04,29,12.80
2019,07,16,04,30,12.80
2019,07,16,04,31,12.80
2019,07,16,04,32,12.80
2019,07,16,04,33,12.80
2019,07,16,04,34,12.80
2019,07,16,04,35,12.80
2019,07,16,04,36,12.80
2019,07,16,04,37,12.80
2019,07,16,04,38,12.80
2019,07,16,04,39,12.80
2019,07,16,04,40,12.80
2019,07,16,04,41,12.80
2019,07,16,04,42,12.80
2019,07,16,04,43,12.80
2019,07,16,04,44,12.80
2019,07,16,04,45,12.80
2019,07,16,04,46,12.80
2019,07,16,04,47,12.80
2019,07,16,04,48,12.80
2019,07,16,04,49,12.80
2019,07,16,04,50,12.80
2019,07,16,04,51,12.80
2019,07,16,04,52,12.80
2019,07,16,04,53,12.80
2019,07,16,04,54,12.70
2019,07,16,04,55,12.70
2019,07,16,04,56,12.70
2019,07,16,04,57,12.70
2019,07,16,04,58,12.70
2019,07,16,04,59,12.70
2019,07,16,05,00,12.70
2019,07,16,05,01,12.80
2019,07,16,05,02,12.80
2019,07,16,05,03,12.80
2019,07,16,05,04,12.80
2019,07,16,05,05,12.80
2019,07,16,05,06,12.80
2019,07,16,05,07,12.80
2019,07,16,05,08,12.80
2019,07,16,05,09,12.80
2019,07,16,05,10,12.80
2019,07,16,05,11,12.80
2019,07,16,05,12,12.80
2019,07,16,05,13,12.70
2019,07,16,05,14,12.70
2019,07,16,05,15,12.70
2019,07,16,05,16,12.70
2019,07,16,05,17,12.70
2019,07,16,05,18,12.70
2019,07,16,05,19,12.70
2019,07,16,05,20,12.70
2019,07,16,05,21,12.70
2019,07,16,05,22,12.60
2019,07,16,05,23,12.60
2019,07,16,05,24,12.60
2019,07,16,05,25,12.60
2019,07,16,05,26,12.60
2019,07,16,05,27,12.60
2019,07,16,05,28,12.60
2019,07,16,05,29,12.60
2019,07,16,05,30,12.60
2019,07,16,05,31,12.60
2019,07,16,05,32,12.60
2019,07,16,05,33,12.60
2019,07,16,05,34,12.60
2019,07,16,05,35,12.60
2019,07,16,05,36,12.60
2019,07,16,05,37,12.60
2019,07,16,05,38,12.60
2019,07,16,05,39,12.60
2019,07,16,05,40,12.70
2019,07,16,05,41,12.70
2019,07,16,05,42,12.70
2019,07,16,05,43,12.80
2019,07,16,05,44,12.80
2019,07,16,05,45,12.80
2019,07,16,05,46,12.80
2019,07,16,05,47,12.80
2019,07,16,05,48,12.80
2019,07,16,05,49,12.80
2019,07,16,05,50,12.90
2019,07,16,05,51,12.90
2019,07,16,05,52,12.90
2019,07,16,05,53,12.90
2019,07,16,05,54,12.90
2019,07,16,05,55,12.90
2019,07,16,05,56,12.90
2019,07,16,05,57,12.90
2019,07,16,05,58,12.90
2019,07,16,05,59,12.90
2019,07,16,06,00,12.90
2019,07,16,06,01,12.90
2019,07,16,06,02,12.90
2019,07,16,06,03,12.90
2019,07,16,06,04,12.90
2019,07,16,06,05,12.90
2019,07,16,06,06,12.90
2019,07,16,06,07,13.00
2019,07,16,06,08,13.00
2019,07,16,06,09,13.00
2019,07,16,06,10,13.00
2019,07,16,06,11,13.00
2019,07,16,06,12,13.10
2019,07,16,06,13,13.10
2019,07,16,06,14,13.10
2019,07,16,06,15,13.10
2019,07,16,06,16,13.20
2019,07,16,06,17,13.20
2019,07,16,06,18,13.20
2019,07,16,06,19,13.20
2019,07,16,06,20,13.20
2019,07,16,06,21,13.30
2019,07,16,06,22,13.30
2019,07,16,06,23,13.30
2019,07,16,06,24,13.30
2019,07,16,06,25,13.40
2019,07,16,06,26,13.50
2019,07,16,06,27,13.60
2019,07,16,06,28,13.60
2019,07,16,06,29,13.70
2019,07,16,06,30,13.70
2019,07,16,06,31,13.70
2019,07,16,06,32,13.80
2019,07,16,06,33,13.90
2019,07,16,06,34,13.90
2019,07,16,06,35,13.90
2019,07,16,06,36,14.00
2019,07,16,06,37,14.00
2019,07,16,06,38,14.00
2019,07,16,06,39,14.10
2019,07,16,06,40,14.20
2019,07,16,06,41,14.20
2019,07,16,06,42,14.40
2019,07,16,06,43,14.50
2019,07,16,06,44,14.50
2019,07,16,06,45,14.60
2019,07,16,06,46,14.60
2019,07,16,06,47,14.60
2019,07,16,06,48,14.60
2019,07,16,06,49,14.70
2019,07,16,06,50,14.60
2019,07,16,06,51,14.60
2019,07,16,06,52,14.60
2019,07,16,06,53,14.70
2019,07,16,06,54,14.70
2019,07,16,06,55,14.70
2019,07,16,06,56,14.80
2019,07,16,06,57,14.80
2019,07,16,06,58,14.80
2019,07,16,06,59,14.90
2019,07,16,07,00,14.90
2019,07,16,07,01,14.90
2019,07,16,07,02,15.00
2019,07,16,07,03,15.00
2019,07,16,07,04,15.00
2019,07,16,07,05,15.10
2019,07,16,07,06,15.10
2019,07,16,07,07,15.10
2019,07,16,07,08,15.20
2019,07,16,07,09,15.30
2019,07,16,07,10,15.30
2019,07,16,07,11,15.40
2019,07,16,07,12,15.50
2019,07,16,07,13,15.50
2019,07,16,07,14,15.60
2019,07,16,07,15,15.60
2019,07,16,07,16,15.70
2019,07,16,07,17,15.80
2019,07,16,07,18,15.80
2019,07,16,07,19,15.80
2019,07,16,07,20,15.80
2019,07,16,07,21,15.90
2019,07,16,07,22,16.00
2019,07,16,07,23,16.10
2019,07,16,07,24,16.10
2019,07,16,07,25,16.10
2019,07,16,07,26,16.20
2019,07,16,07,27,16.20
2019,07,16,07,28,16.30
2019,07,16,07,29,16.40
2019,07,16,07,30,16.50
2019,07,16,07,31,16.60
2019,07,16,07,32,16.70
2019,07,16,07,33,16.80
2019,07,16,07,34,16.80
2019,07,16,07,35,16.90
2019,07,16,07,36,17.00
2019,07,16,07,37,17.00
2019,07,16,07,38,17.10
2019,07,16,07,39,17.20
2019,07,16,07,40,17.20
2019,07,16,07,41,17.30
2019,07,16,07,42,17.30
2019,07,16,07,43,17.30
2019,07,16,07,44,17.40
2019,07,16,07,45,17.40
2019,07,16,07,46,17.50
2019,07,16,07,47,17.50
2019,07,16,07,48,17.60
2019,07,16,07,49,17.70
2019,07,16,07,50,17.70
2019,07,16,07,51,17.80
2019,07,16,07,52,17.90
2019,07,16,07,53,17.90
2019,07,16,07,54,17.90
2019,07,16,07,55,17.90
2019,07,16,07,56,18.10
2019,07,16,07,57,18.10
2019,07,16,07,58,18.20
2019,07,16,07,59,18.20
2019,07,16,08,00,18.20
2019,07,16,08,01,18.20
2019,07,16,08,02,18.20
2019,07,16,08,03,18.20
2019,07,16,08,04,18.20
2019,07,16,08,05,18.20
2019,07,16,08,06,18.20
2019,07,16,08,07,18.20
2019,07,16,08,08,18.20
2019,07,16,08,09,18.30
2019,07,16,08,10,18.40
2019,07,16,08,11,18.40
2019,07,16,08,12,18.50
2019,07,16,08,13,18.50
2019,07,16,08,14,18.60
2019,07,16,08,15,18.60
2019,07,16,08,16,18.60
2019,07,16,08,17,18.70
2019,07,16,08,18,18.70
2019,07,16,08,19,18.70
2019,07,16,08,20,18.80
2019,07,16,08,21,18.80
2019,07,16,08,22,18.70
2019,07,16,08,23,18.70
2019,07,16,08,24,18.70
2019,07,16,08,25,18.70
2019,07,16,08,26,18.70
2019,07,16,08,27,18.70
2019,07,16,08,28,18.70
2019,07,16,08,29,18.70
2019,07,16,08,30,18.70
2019,07,16,08,31,18.80
2019,07,16,08,32,18.80
2019,07,16,08,33,18.80
2019,07,16,08,34,18.80
2019,07,16,08,35,18.80
2019,07,16,08,36,18.80
2019,07,16,08,37,18.80
2019,07,16,08,38,18.80
2019,07,16,08,39,18.80
2019,07,16,08,40,18.80
2019,07,16,08,41,18.80
2019,07,16,08,42,18.90
2019,07,16,08,43,18.90
2019,07,16,08,44,18.90
2019,07,16,08,45,18.90
2019,07,16,08,46,19.00
2019,07,16,08,47,19.10
2019,07,16,08,48,19.00
2019,07,16,08,49,18.90
2019,07,16,08,50,18.90
2019,07,16,08,51,19.00
2019,07,16,08,52,19.10
2019,07,16,08,53,19.10
2019,07,16,08,54,19.10
2019,07,16,08,55,19.10
2019,07,16,08,56,19.10
2019,07,16,08,57,19.10
2019,07,16,08,58,19.20
2019,07,16,08,59,19.20
2019,07,16,09,00,19.20
2019,07,16,09,01,19.20
2019,07,16,09,02,19.20
2019,07,16,09,03,19.20
2019,07,16,09,04,19.30
2019,07,16,09,05,19.30
2019,07,16,09,06,19.40
2019,07,16,09,07,19.30
2019,07,16,09,08,19.40
2019,07,16,09,09,19.40
2019,07,16,09,10,19.50
2019,07,16,09,11,19.50
2019,07,16,09,12,19.60
2019,07,16,09,13,19.60
2019,07,16,09,14,19.70
2019,07,16,09,15,19.80
2019,07,16,09,16,19.80
2019,07,16,09,17,19.90
2019,07,16,09,18,19.90
2019,07,16,09,19,19.90
2019,07,16,09,20,19.90
2019,07,16,09,21,19.90
2019,07,16,09,22,19.90
2019,07,16,09,23,20.00
2019,07,16,09,24,20.10
2019,07,16,09,25,20.20
2019,07,16,09,26,20.20
2019,07,16,09,27,20.20
2019,07,16,09,28,20.20
2019,07,16,09,29,20.20
2019,07,16,09,30,20.20
2019,07,16,09,31,20.20
2019,07,16,09,32,20.20
2019,07,16,09,33,20.20
2019,07,16,09,34,20.20
2019,07,16,09,35,20.20
2019,07,16,09,36,20.20
2019,07,16,09,37,20.30
2019,07,16,09,38,20.30
2019,07,16,09,39,20.30
2019,07,16,09,40,20.20
2019,07,16,09,41,20.00
2019,07,16,09,42,19.90
2019,07,16,09,43,19.90
2019,07,16,09,44,19.90
2019,07,16,09,45,19.80
2019,07,16,09,46,19.80
2019,07,16,09,47,19.80
2019,07,16,09,48,19.80
2019,07,16,09,49,19.80
2019,07,16,09,50,19.80
2019,07,16,09,51,19.80
2019,07,16,09,52,19.90
2019,07,16,09,53,19.80
2019,07,16,09,54,19.80
2019,07,16,09,55,19.80
2019,07,16,09,56,19.80
2019,07,16,09,57,19.80
2019,07,16,09,58,19.90
2019,07,16,09,59,19.80
2019,07,16,10,00,19.80
2019,07,16,10,01,19.70
2019,07,16,10,02,19.70
2019,07,16,10,03,19.70
2019,07,16,10,04,19.70
2019,07,16,10,05,19.70
2019,07,16,10,06,19.70
2019,07,16,10,07,19.70
2019,07,16,10,08,19.70
2019,07,16,10,09,19.70
2019,07,16,10,10,19.60
2019,07,16,10,11,19.50
2019,07,16,10,12,19.50
2019,07,16,10,13,19.50
2019,07,16,10,14,19.50
2019,07,16,10,15,19.50
2019,07,16,10,16,19.60
2019,07,16,10,17,19.60
2019,07,16,10,18,19.70
2019,07,16,10,19,19.80
2019,07,16,10,20,19.80
2019,07,16,10,21,19.90
2019,07,16,10,22,20.00
2019,07,16,10,23,20.20
2019,07,16,10,24,20.20
2019,07,16,10,25,20.20
2019,07,16,10,26,20.10
2019,07,16,10,27,20.10
2019,07,16,10,28,19.90
2019,07,16,10,29,20.00
2019,07,16,10,30,20.10
2019,07,16,10,31,20.10
2019,07,16,10,32,20.00
2019,07,16,10,33,19.90
2019,07,16,10,34,19.90
2019,07,16,10,35,19.90
2019,07,16,10,36,20.00
2019,07,16,10,37,20.00
2019,07,16,10,38,19.90
2019,07,16,10,39,19.90
2019,07,16,10,40,20.10
2019,07,16,10,41,20.20
2019,07,16,10,42,20.20
2019,07,16,10,43,20.30
2019,07,16,10,44,20.30
2019,07,16,10,45,20.30
2019,07,16,10,46,20.30
2019,07,16,10,47,20.30
2019,07,16,10,48,20.30
2019,07,16,10,49,20.30
2019,07,16,10,50,20.30
2019,07,16,10,51,20.30
2019,07,16,10,52,20.40
2019,07,16,10,53,20.50
2019,07,16,10,54,20.50
2019,07,16,10,55,20.50
2019,07,16,10,56,20.50
2019,07,16,10,57,20.50
2019,07,16,10,58,20.60
2019,07,16,10,59,20.70
2019,07,16,11,00,20.70
2019,07,16,11,01,20.70
2019,07,16,11,02,20.70
2019,07,16,11,03,20.50
2019,07,16,11,04,20.50
2019,07,16,11,05,20.50
2019,07,16,11,06,20.50
2019,07,16,11,07,20.50
2019,07,16,11,08,20.50
2019,07,16,11,09,20.70
2019,07,16,11,10,20.70
2019,07,16,11,11,20.80
2019,07,16,11,12,20.90
2019,07,16,11,13,20.90
2019,07,16,11,14,21.00
2019,07,16,11,15,21.10
2019,07,16,11,16,21.20
2019,07,16,11,17,21.30
2019,07,16,11,18,21.30
2019,07,16,11,19,21.30
2019,07,16,11,20,21.20
2019,07,16,11,21,21.20
2019,07,16,11,22,21.20
2019,07,16,11,23,21.10
2019,07,16,11,24,21.10
2019,07,16,11,25,21.00
2019,07,16,11,26,20.90
2019,07,16,11,27,20.80
2019,07,16,11,28,20.80
2019,07,16,11,29,21.00
2019,07,16,11,30,21.10
2019,07,16,11,31,21.10
2019,07,16,11,32,21.10
2019,07,16,11,33,21.00
2019,07,16,11,34,20.90
2019,07,16,11,35,20.80
2019,07,16,11,36,20.90
2019,07,16,11,37,20.90
2019,07,16,11,38,20.90
2019,07,16,11,39,20.90
2019,07,16,11,40,21.00
2019,07,16,11,41,21.00
2019,07,16,11,42,21.10
2019,07,16,11,43,21.20
2019,07,16,11,44,21.20
2019,07,16,11,45,21.10
2019,07,16,11,46,21.10
2019,07,16,11,47,21.00
2019,07,16,11,48,21.00
2019,07,16,11,49,20.90
2019,07,16,11,50,20.90
2019,07,16,11,51,20.80
2019,07,16,11,52,20.80
2019,07,16,11,53,20.70
2019,07,16,11,54,20.60
2019,07,16,11,55,20.60
2019,07,16,11,56,20.70
2019,07,16,11,57,20.90
2019,07,16,11,58,21.00
2019,07,16,11,59,21.20
2019,07,16,12,00,21.30
2019,07,16,12,01,21.30
2019,07,16,12,02,21.30
2019,07,16,12,03,21.30
2019,07,16,12,04,21.30
2019,07,16,12,05,21.30
2019,07,16,12,06,21.40
2019,07,16,12,07,21.40
2019,07,16,12,08,21.30
2019,07,16,12,09,21.30
2019,07,16,12,10,21.20
2019,07,16,12,11,21.10
2019,07,16,12,12,21.00
2019,07,16,12,13,21.00
2019,07,16,12,14,21.10
2019,07,16,12,15,21.20
2019,07,16,12,16,21.30
2019,07,16,12,17,21.30
2019,07,16,12,18,21.30
2019,07,16,12,19,21.30
2019,07,16,12,20,21.40
2019,07,16,12,21,21.60
2019,07,16,12,22,21.60
2019,07,16,12,23,21.60
2019,07,16,12,24,21.60
2019,07,16,12,25,21.60
2019,07,16,12,26,21.60
2019,07,16,12,27,21.60
2019,07,16,12,28,21.70
2019,07,16,12,29,21.70
2019,07,16,12,30,21.70
2019,07,16,12,31,21.50
2019,07,16,12,32,21.30
2019,07,16,12,33,21.20
2019,07,16,12,34,21.20
2019,07,16,12,35,21.30
2019,07,16,12,36,21.40
2019,07,16,12,37,21.60
2019,07,16,12,38,21.70
2019,07,16,12,39,21.90
2019,07,16,12,40,22.00
2019,07,16,12,41,22.10
2019,07,16,12,42,22.10
2019,07,16,12,43,22.10
2019,07,16,12,44,22.00
2019,07,16,12,45,21.90
2019,07,16,12,46,21.90
2019,07,16,12,47,21.90
2019,07,16,12,48,21.90
2019,07,16,12,49,21.90
2019,07,16,12,50,22.00
2019,07,16,12,51,22.00
2019,07,16,12,52,22.00
2019,07,16,12,53,22.00
2019,07,16,12,54,21.80
2019,07,16,12,55,21.60
2019,07,16,12,56,21.60
2019,07,16,12,57,21.60
2019,07,16,12,58,21.60
2019,07,16,12,59,21.60
2019,07,16,13,00,21.60
2019,07,16,13,01,21.60
2019,07,16,13,02,21.60
2019,07,16,13,03,21.60
2019,07,16,13,04,21.60
2019,07,16,13,05,21.70
2019,07,16,13,06,21.70
2019,07,16,13,07,21.70
2019,07,16,13,08,21.60
2019,07,16,13,09,21.50
2019,07,16,13,10,21.40
2019,07,16,13,11,21.50
2019,07,16,13,12,21.60
2019,07,16,13,13,21.50
2019,07,16,13,14,21.30
2019,07,16,13,15,21.30
2019,07,16,13,16,21.30
2019,07,16,13,17,21.30
2019,07,16,13,18,21.30
2019,07,16,13,19,21.20
2019,07,16,13,20,21.00
2019,07,16,13,21,21.10
2019,07,16,13,22,21.10
2019,07,16,13,23,21.20
2019,07,16,13,24,21.40
2019,07,16,13,25,21.60
2019,07,16,13,26,21.80
2019,07,16,13,27,21.80
2019,07,16,13,28,21.90
2019,07,16,13,29,22.00
2019,07,16,13,30,22.20
2019,07,16,13,31,22.20
2019,07,16,13,32,22.10
2019,07,16,13,33,22.10
2019,07,16,13,34,22.10
2019,07,16,13,35,22.00
2019,07,16,13,36,21.90
2019,07,16,13,37,21.70
2019,07,16,13,38,21.70
2019,07,16,13,39,21.70
2019,07,16,13,40,21.60
2019,07,16,13,41,21.60
2019,07,16,13,42,21.60
2019,07,16,13,43,21.70
2019,07,16,13,44,21.80
2019,07,16,13,45,21.80
2019,07,16,13,46,21.80
2019,07,16,13,47,21.90
2019,07,16,13,48,22.00
2019,07,16,13,49,22.10
2019,07,16,13,50,22.40
2019,07,16,13,51,22.60
2019,07,16,13,52,22.70
2019,07,16,13,53,22.80
2019,07,16,13,54,23.00
2019,07,16,13,55,23.10
2019,07,16,13,56,23.10
2019,07,16,13,57,23.00
2019,07,16,13,58,23.00
2019,07,16,13,59,23.10
2019,07,16,14,00,23.20
2019,07,16,14,01,23.30
2019,07,16,14,02,23.40
2019,07,16,14,03,23.30
2019,07,16,14,04,23.20
2019,07,16,14,05,23.20
2019,07,16,14,06,23.20
2019,07,16,14,07,23.20
2019,07,16,14,08,23.00
2019,07,16,14,09,22.90
2019,07,16,14,10,22.90
2019,07,16,14,11,22.90
2019,07,16,14,12,22.90
2019,07,16,14,13,22.80
2019,07,16,14,14,22.70
2019,07,16,14,15,22.70
2019,07,16,14,16,22.70
2019,07,16,14,17,22.70
2019,07,16,14,18,22.80
2019,07,16,14,19,22.90
2019,07,16,14,20,23.10
2019,07,16,14,21,23.10
2019,07,16,14,22,23.10
2019,07,16,14,23,23.10
2019,07,16,14,24,23.20
2019,07,16,14,25,23.20
2019,07,16,14,26,23.30
2019,07,16,14,27,23.30
2019,07,16,14,28,23.30
2019,07,16,14,29,23.30
2019,07,16,14,30,23.30
2019,07,16,14,31,23.30
2019,07,16,14,32,23.40
2019,07,16,14,33,23.50
2019,07,16,14,34,23.60
2019,07,16,14,35,23.50
2019,07,16,14,36,23.40
2019,07,16,14,37,23.40
2019,07,16,14,38,23.30
2019,07,16,14,39,23.30
2019,07,16,14,40,23.30
2019,07,16,14,41,23.30
2019,07,16,14,42,23.30
2019,07,16,14,43,23.30
2019,07,16,14,44,23.40
2019,07,16,14,45,23.50
2019,07,16,14,46,23.70
2019,07,16,14,47,23.60
2019,07,16,14,48,23.50
2019,07,16,14,49,23.50
2019,07,16,14,50,23.60
2019,07,16,14,51,23.60
2019,07,16,14,52,23.60
2019,07,16,14,53,23.60
2019,07,16,14,54,23.60
2019,07,16,14,55,23.60
2019,07,16,14,56,23.40
2019,07,16,14,57,23.50
2019,07,16,14,58,23.60
2019,07,16,14,59,23.50
2019,07,16,15,00,23.30
2019,07,16,15,01,23.30
2019,07,16,15,02,23.30
2019,07,16,15,03,23.30
2019,07,16,15,04,23.30
2019,07,16,15,05,23.20
2019,07,16,15,06,23.10
2019,07,16,15,07,23.20
2019,07,16,15,08,23.10
2019,07,16,15,09,23.20
2019,07,16,15,10,23.10
2019,07,16,15,11,23.00
2019,07,16,15,12,22.80
2019,07,16,15,13,22.60
2019,07,16,15,14,22.50
2019,07,16,15,15,22.40
2019,07,16,15,16,22.30
2019,07,16,15,17,22.20
2019,07,16,15,18,22.10
2019,07,16,15,19,22.00
2019,07,16,15,20,22.00
2019,07,16,15,21,22.00
2019,07,16,15,22,22.00
2019,07,16,15,23,22.00
2019,07,16,15,24,22.00
2019,07,16,15,25,21.90
2019,07,16,15,26,21.90
2019,07,16,15,27,21.90
2019,07,16,15,28,21.90
2019,07,16,15,29,22.00
2019,07,16,15,30,22.00
2019,07,16,15,31,22.10
2019,07,16,15,32,22.20
2019,07,16,15,33,22.30
2019,07,16,15,34,22.40
2019,07,16,15,35,22.30
2019,07,16,15,36,22.30
2019,07,16,15,37,22.30
2019,07,16,15,38,22.40
2019,07,16,15,39,22.40
2019,07,16,15,40,22.40
2019,07,16,15,41,22.50
2019,07,16,15,42,22.60
2019,07,16,15,43,22.60
2019,07,16,15,44,22.60
2019,07,16,15,45,22.60
2019,07,16,15,46,22.60
2019,07,16,15,47,22.50
2019,07,16,15,48,22.50
2019,07,16,15,49,22.50
2019,07,16,15,50,22.50
2019,07,16,15,51,22.50
2019,07,16,15,52,22.50
2019,07,16,15,53,22.50
2019,07,16,15,54,22.50
2019,07,16,15,55,22.50
2019,07,16,15,56,22.60
2019,07,16,15,57,22.60
2019,07,16,15,58,22.60
2019,07,16,15,59,22.70
2019,07,16,16,00,22.80
2019,07,16,16,01,22.90
2019,07,16,16,02,23.00
2019,07,16,16,03,23.10
2019,07,16,16,04,23.10
2019,07,16,16,05,23.10
2019,07,16,16,06,23.20
2019,07,16,16,07,23.20
2019,07,16,16,08,23.30
2019,07,16,16,09,23.30
2019,07,16,16,10,23.30
2019,07,16,16,11,23.30
2019,07,16,16,12,23.30
2019,07,16,16,13,23.10
2019,07,16,16,14,23.10
2019,07,16,16,15,23.10
2019,07,16,16,16,23.10
2019,07,16,16,17,23.20
2019,07,16,16,18,23.30
2019,07,16,16,19,23.40
2019,07,16,16,20,23.40
2019,07,16,16,21,23.30
2019,07,16,16,22,23.30
2019,07,16,16,23,23.20
2019,07,16,16,24,23.10
2019,07,16,16,25,23.00
2019,07,16,16,26,22.90
2019,07,16,16,27,22.80
2019,07,16,16,28,22.80
2019,07,16,16,29,22.70
2019,07,16,16,30,22.60
2019,07,16,16,31,22.70
2019,07,16,16,32,22.60
2019,07,16,16,33,22.50
2019,07,16,16,34,22.50
2019,07,16,16,35,22.40
2019,07,16,16,36,22.40
2019,07,16,16,37,22.40
2019,07,16,16,38,22.40
2019,07,16,16,39,22.50
2019,07,16,16,40,22.50
2019,07,16,16,41,22.60
2019,07,16,16,42,22.60
2019,07,16,16,43,22.50
2019,07,16,16,44,22.50
2019,07,16,16,45,22.40
2019,07,16,16,46,22.50
2019,07,16,16,47,22.40
2019,07,16,16,48,22.30
2019,07,16,16,49,22.10
2019,07,16,16,50,22.00
2019,07,16,16,51,21.90
2019,07,16,16,52,21.80
2019,07,16,16,53,21.90
2019,07,16,16,54,21.90
2019,07,16,16,55,21.90
2019,07,16,16,56,21.90
2019,07,16,16,57,22.00
2019,07,16,16,58,22.00
2019,07,16,16,59,21.90
2019,07,16,17,00,21.90
2019,07,16,17,01,21.90
2019,07,16,17,02,21.90
2019,07,16,17,03,21.90
2019,07,16,17,04,22.00
2019,07,16,17,05,21.90
2019,07,16,17,06,21.90
2019,07,16,17,07,22.00
2019,07,16,17,08,22.00
2019,07,16,17,09,22.00
2019,07,16,17,10,22.00
2019,07,16,17,11,22.00
2019,07,16,17,12,22.10
2019,07,16,17,13,22.10
2019,07,16,17,14,22.20
2019,07,16,17,15,22.20
2019,07,16,17,16,22.10
2019,07,16,17,17,22.10
2019,07,16,17,18,22.00
2019,07,16,17,19,22.00